Weather History for KSAF - March, 2013

Change the Weather History Date:

Sunday, March 3, 2013

  Actual Average Record
Temperature  
Mean Temperature 44 °F -  
Max Temperature 63 °F 0 °F 70 °F (2009)
Min Temperature 26 °F - 5 °F (2002)
Degree Days  
Heating Degree Days 20    
Moisture  
Dew Point 13 °F    
Average Humidity 31    
Maximum Humidity 66    
Minimum Humidity 6    
Precipitation  
Precipitation 0.00 in - - ()
Sea Level Pressure  
Sea Level Pressure 29.90 in    
Wind  
Wind Speed 10 mph (WNW)    
Max Wind Speed 25 mph    
Max Gust Speed 33 mph    
Visibility 10 miles    
Events      
Averages and records for this station are not official NWS values.
T = Trace of Precipitation, MM = Missing Value Source: NWS Daily Summary

Daily Weather History Graph

Daily Weather History Graph

Search for Another Location

Airport or City:

Trip Planner

Search our weather history database for the weather conditions in past years. The results will help you decide how hot, cold, wet, or windy it might be!

Date:

Astronomy

Mar. 03, 2013 Rise Set
Actual Time 6:31 AM MST 6:01 PM MST
Civil Twilight 6:05 AM MST 6:27 PM MST
Nautical Twilight 5:36 AM MST 6:56 PM MST
Astronomical Twilight 5:06 AM MST 7:26 PM MST
Moon No Moon Rise 10:02 AM MST (3/3)
Length of Visible Light 12h 21m
Length of Day
11h 30m
Waning Gibbous, 63% of the Moon is Illuminated
Mar 3
Waning Gibbous
Mar 4
Last Quarter
Mar 11
New
Mar 19
First Quarter
Mar 27
Full

Hourly Weather History & Observations

Time (MST) Temp. Windchill Dew Point Humidity Pressure Visibility Wind Dir Wind Speed Gust Speed Precip Events Conditions
12:53 AM 33.1 °F 28.7 °F 17.1 °F 52% 30.12 in 10.0 mi ENE 4.6 mph - N/A   Clear
1:53 AM 27.0 °F 20.5 °F 16.0 °F 63% 30.12 in 10.0 mi NNE 5.8 mph - N/A   Clear
2:53 AM 28.9 °F 23.9 °F 17.1 °F 61% 30.07 in 10.0 mi North 4.6 mph - N/A   Clear
3:53 AM 30.0 °F 24.1 °F 17.1 °F 59% 30.04 in 10.0 mi North 5.8 mph - N/A   Clear
5:53 AM 26.1 °F 18.4 °F 16.0 °F 66% 30.04 in 10.0 mi North 6.9 mph - N/A   Clear
6:53 AM 30.9 °F 26.2 °F 17.1 °F 57% 30.04 in 10.0 mi NNW 4.6 mph - N/A   Clear
7:53 AM 43.0 °F 40.3 °F 18.0 °F 37% 30.00 in 10.0 mi WSW 4.6 mph - N/A   Clear
8:53 AM 48.0 °F - 17.1 °F 29% 29.98 in 10.0 mi WSW 12.7 mph - N/A   Clear
9:53 AM 48.9 °F - 17.1 °F 28% 29.96 in 10.0 mi WSW 6.9 mph - N/A   Clear
10:53 AM 53.1 °F - 16.0 °F 23% 29.92 in 10.0 mi WSW 11.5 mph - N/A   Clear
11:53 AM 57.9 °F - 14.0 °F 18% 29.88 in 10.0 mi West 13.8 mph - N/A   Clear
12:53 PM 63.0 °F - 10.9 °F 13% 29.82 in 10.0 mi West 19.6 mph 28.8 mph N/A   Clear
1:53 PM 63.0 °F - 5.0 °F 10% 29.81 in 10.0 mi West 20.7 mph 28.8 mph N/A   Clear
2:07 PM 62.6 °F - -5.8 °F 6% 29.92 in 10.0 mi West 21.9 mph 29.9 mph N/A   Clear
2:53 PM 62.1 °F - -0.0 °F 8% 29.78 in 10.0 mi West 19.6 mph 29.9 mph N/A   Clear
3:53 PM 60.1 °F - 6.1 °F 12% 29.78 in 10.0 mi West 17.3 mph 26.5 mph N/A   Clear
4:53 PM 57.9 °F - 5.0 °F 12% 29.79 in 10.0 mi West 23.0 mph 29.9 mph N/A   Partly Cloudy
5:53 PM 55.9 °F - 7.0 °F 14% 29.81 in 10.0 mi West 24.2 mph 32.2 mph N/A   Scattered Clouds
6:53 PM 54.0 °F - 10.9 °F 18% 29.82 in 10.0 mi West 25.3 mph 33.4 mph N/A   Mostly Cloudy
7:53 PM 52.0 °F - 14.0 °F 22% 29.79 in 10.0 mi West 13.8 mph 26.5 mph N/A   Scattered Clouds
8:53 PM 46.9 °F - 15.1 °F 28% 29.79 in 10.0 mi West 5.8 mph - N/A   Mostly Cloudy
9:53 PM 46.0 °F 43.1 °F 16.0 °F 30% 29.78 in 10.0 mi WNW 5.8 mph - N/A   Partly Cloudy
10:53 PM 45.0 °F 43.5 °F 17.1 °F 33% 29.77 in 10.0 mi NW 3.5 mph - N/A   Mostly Cloudy
11:53 PM 46.0 °F - 19.0 °F 34% 29.74 in 10.0 mi Calm Calm - N/A   Overcast